Agiasma, Greece

3:27 PM EET on February 22, 2017 (GMT +0200)
Megas Alexandros

Weather History for LGKV - October, 2013

Change the Weather History Date:

Wednesday, October 2, 2013

  Actual Average Record
Temperature  
Mean Temperature 56 °F -  
Max Temperature 62 °F 72 °F 78 °F (1999)
Min Temperature 50 °F 56 °F 50 °F (2013)
Degree Days  
Heating Degree Days 9    
Growing Degree Days 6 (Base 50)    
Moisture  
Dew Point 48 °F    
Average Humidity 76    
Maximum Humidity 94    
Minimum Humidity 55    
Precipitation  
Precipitation 0.00 in - - ()
Sea Level Pressure  
Sea Level Pressure 29.88 in    
Wind  
Wind Speed 10 mph ()    
Max Wind Speed 15 mph    
Max Gust Speed -    
Visibility 6.2 miles    
Events Rain    
Averages and records for this station are not official NWS values.
T = Trace of Precipitation, MM = Missing Value Source: Averaged Metar Reports

Daily Weather History Graph

Daily Weather History Graph

Search for Another Location

Airport or City:

Trip Planner

Search our weather history database for the weather conditions in past years. The results will help you decide how hot, cold, wet, or windy it might be!

Date:

Astronomy

Oct. 02, 2013 Rise Set
Actual Time 7:19 AM EEST 7:02 PM EEST
Civil Twilight 6:51 AM EEST 7:29 PM EEST
Nautical Twilight 6:19 AM EEST 8:01 PM EEST
Astronomical Twilight 5:47 AM EEST 8:33 PM EEST
Moon 4:32 AM EEST (10/2) 5:28 PM EEST (10/2)
Length of Visible Light 12h 37m
Length of Day
11h 42m
Waning Crescent, 8% of the Moon is Illuminated
Oct 2
Waning Crescent
Oct 5
New
Oct 12
First Quarter
Oct 19
Full
Oct 27
Last Quarter

Hourly Weather History & Observations

Time (EEST) Temp. Dew Point Humidity Pressure Visibility Wind Dir Wind Speed Gust Speed Precip Events Conditions
12:50 AM 60.8 °F 53.6 °F 77% 29.62 in 6.2 mi ESE 9.2 mph - N/A   Mostly Cloudy
2:50 AM 53.6 °F 51.8 °F 94% 29.68 in 6.2 mi East 12.7 mph - N/A Rain Light Rain
3:50 AM 51.8 °F 50.0 °F 94% 29.71 in 6.2 mi East 13.8 mph - N/A   Overcast
4:50 AM 51.8 °F 48.2 °F 88% 29.74 in 6.2 mi East 11.5 mph - N/A   Overcast
5:20 AM 51.8 °F 48.2 °F 88% 29.74 in 6.2 mi East 10.4 mph - N/A   Overcast
5:50 AM 53.6 °F 50.0 °F 88% 29.74 in 6.2 mi East 8.1 mph - N/A   Overcast
6:20 AM 53.6 °F 50.0 °F 88% 29.77 in 6.2 mi East 5.8 mph - N/A Rain Light Rain
6:50 AM 51.8 °F 48.2 °F 88% 29.77 in 6.2 mi ESE 8.1 mph - N/A   Overcast
7:20 AM 51.8 °F 48.2 °F 88% 29.80 in 6.2 mi East 9.2 mph - N/A   Overcast
7:50 AM 51.8 °F 48.2 °F 88% 29.80 in 6.2 mi East 10.4 mph - N/A Rain Light Rain
8:20 AM 51.8 °F 48.2 °F 88% 29.83 in 6.2 mi East 11.5 mph - N/A   Overcast
8:50 AM 53.6 °F 46.4 °F 77% 29.83 in 6.2 mi East 9.2 mph - N/A   Overcast
9:20 AM 53.6 °F 46.4 °F 77% 29.83 in 6.2 mi East 9.2 mph - N/A   Overcast
9:50 AM 53.6 °F 44.6 °F 72% 29.86 in 6.2 mi East 9.2 mph - N/A   Overcast
10:20 AM 53.6 °F 44.6 °F 72% 29.86 in 6.2 mi East 8.1 mph - N/A   Overcast
10:50 AM 57.2 °F 48.2 °F 72% 29.86 in 6.2 mi ENE 13.8 mph - N/A   Mostly Cloudy
11:20 AM 57.2 °F 48.2 °F 72% 29.86 in 6.2 mi ENE 13.8 mph - N/A   Mostly Cloudy
11:50 AM 57.2 °F 48.2 °F 72% 29.86 in 6.2 mi ENE 12.7 mph - N/A   Mostly Cloudy
12:20 PM 59.0 °F 48.2 °F 67% 29.86 in 6.2 mi East 13.8 mph - N/A   Mostly Cloudy
12:50 PM 59.0 °F 46.4 °F 63% 29.89 in 6.2 mi East 15.0 mph - N/A   Scattered Clouds
1:20 PM 59.0 °F 46.4 °F 63% 29.89 in 6.2 mi East 11.5 mph - N/A   Scattered Clouds
1:50 PM 60.8 °F 48.2 °F 63% 29.89 in 6.2 mi ESE 8.1 mph - N/A   Scattered Clouds
2:20 PM 60.8 °F 48.2 °F 63% 29.89 in 6.2 mi East 8.1 mph - N/A   Mostly Cloudy
2:50 PM 62.6 °F 46.4 °F 55% 29.89 in 6.2 mi ESE 10.4 mph - N/A   Mostly Cloudy
3:20 PM 62.6 °F 46.4 °F 55% 29.89 in 6.2 mi ESE 10.4 mph - N/A   Mostly Cloudy
3:50 PM 60.8 °F 46.4 °F 59% 29.92 in 6.2 mi ESE 10.4 mph - N/A   Mostly Cloudy
4:20 PM 60.8 °F 46.4 °F 59% 29.92 in 6.2 mi ESE 10.4 mph - N/A   Mostly Cloudy
4:50 PM 59.0 °F 50.0 °F 72% 29.92 in 6.2 mi ESE 11.5 mph - N/A   Mostly Cloudy
5:20 PM 59.0 °F 50.0 °F 72% 29.92 in 6.2 mi ESE 11.5 mph - N/A   Mostly Cloudy
5:50 PM 57.2 °F 48.2 °F 72% 29.92 in 6.2 mi East 10.4 mph - N/A   Mostly Cloudy
6:20 PM 57.2 °F 48.2 °F 72% 29.95 in 6.2 mi East 10.4 mph - N/A   Mostly Cloudy
6:50 PM 53.6 °F 50.0 °F 88% 29.95 in 6.2 mi ENE 12.7 mph - N/A Rain Light Rain
8:20 PM 53.6 °F 50.0 °F 88% 29.98 in 6.2 mi East 10.4 mph - N/A   Mostly Cloudy
8:50 PM 53.6 °F 46.4 °F 77% 30.01 in 6.2 mi ENE 11.5 mph - N/A   Mostly Cloudy
9:20 PM 53.6 °F 46.4 °F 77% 30.01 in 6.2 mi ENE 10.4 mph - N/A   Mostly Cloudy
9:50 PM 51.8 °F 44.6 °F 76% 30.01 in 6.2 mi East 10.4 mph - N/A   Mostly Cloudy
10:20 PM 51.8 °F 44.6 °F 76% 30.04 in 6.2 mi ENE 10.4 mph - N/A   Mostly Cloudy
10:50 PM 50.0 °F 44.6 °F 82% 30.04 in 6.2 mi ENE 12.7 mph - N/A   Scattered Clouds
11:20 PM 50.0 °F 44.6 °F 82% 30.04 in 6.2 mi ENE 12.7 mph - N/A   Scattered Clouds
11:50 PM 50.0 °F 44.6 °F 82% 30.04 in 6.2 mi East 10.4 mph - N/A   Mostly Cloudy